| time (UTC) | temp F | wind direction | speed MPH | gust MPH | rain 1hr in | rain 24hr in | rain mn in | humidity % | barometer mb |
| 20260904102034 | 80 | 119 | 4.0 | 8.0 | 0.00 | 0.00 | 0.00 | 81 | 1011.2 |
| 20260904101034 | 80 | 111 | 2.0 | 7.0 | 0.00 | 0.00 | 0.00 | 81 | 1011.2 |
| 20260904100034 | 81 | 115 | 3.0 | 6.0 | 0.00 | 0.00 | 0.00 | 81 | 1011.1 |
| 20260904095034 | 81 | 128 | 3.0 | 9.0 | 0.00 | 0.00 | 0.00 | 81 | 1011.0 |
| 20260904094034 | 81 | 155 | 2.0 | 7.0 | 0.00 | 0.00 | 0.00 | 80 | 1011.0 |
| 20260904092034 | 81 | 166 | 0.0 | 6.0 | 0.00 | 0.00 | 0.00 | 80 | 1010.9 |
| 20260904091034 | 81 | 161 | 2.0 | 5.0 | 0.00 | 0.00 | 0.00 | 80 | 1011.0 |
| 20260904090034 | 81 | 150 | 2.0 | 5.0 | 0.00 | 0.00 | 0.00 | 79 | 1011.0 |
| 20260904084034 | 81 | 145 | 2.0 | 7.0 | 0.00 | 0.00 | 0.00 | 79 | 1011.1 |
| 20260904083034 | 81 | 138 | 7.0 | 8.0 | 0.00 | 0.00 | 0.00 | 79 | 1011.0 |
| 20260904082034 | 81 | 137 | 4.0 | 10.0 | 0.00 | 0.00 | 0.00 | 79 | 1011.0 |
| 20260904081034 | 81 | 146 | 2.0 | 8.0 | 0.00 | 0.00 | 0.00 | 79 | 1011.0 |
| 20260904080034 | 81 | 180 | 3.0 | 10.0 | 0.00 | 0.00 | 0.00 | 79 | 1011.0 |
| 20260904075034 | 81 | 178 | 3.0 | 9.0 | 0.00 | 0.00 | 0.00 | 78 | 1010.9 |
| 20260904074034 | 81 | 142 | 3.0 | 8.0 | 0.00 | 0.00 | 0.00 | 78 | 1010.9 |
| 20260904073034 | 82 | 157 | 1.0 | 11.0 | 0.00 | 0.00 | 0.00 | 78 | 1011.0 |
| 20260904072034 | 82 | 171 | 4.0 | 10.0 | 0.00 | 0.00 | 0.00 | 78 | 1011.1 |
| 20260904065034 | 82 | 183 | 5.0 | 12.0 | 0.00 | 0.00 | 0.00 | 78 | 1011.4 |
| 20260904064034 | 82 | 192 | 3.0 | 12.0 | 0.00 | 0.00 | 0.00 | 78 | 1011.3 |
| 20260904063034 | 82 | 161 | 9.0 | 10.0 | 0.00 | 0.00 | 0.00 | 77 | 1011.2 |
| 20260904062034 | 82 | 158 | 5.0 | 10.0 | 0.00 | 0.00 | 0.00 | 77 | 1011.2 |
| 20260904061034 | 82 | 167 | 8.0 | 12.0 | 0.00 | 0.00 | 0.00 | 77 | 1011.2 |
| 20260904060034 | 82 | 143 | 3.0 | 10.0 | 0.00 | 0.00 | 0.00 | 77 | 1011.3 |
| 20260904055034 | 82 | 178 | 4.0 | 12.0 | 0.00 | 0.00 | 0.00 | 77 | 1011.2 |
| 20260904053034 | 82 | 134 | 4.0 | 10.0 | 0.00 | 0.00 | 0.00 | 77 | 1011.2 |
| 20260904052034 | 82 | 175 | 3.0 | 13.0 | 0.00 | 0.00 | 0.00 | 76 | 1011.2 |
| 20260904051034 | 82 | 114 | 4.0 | 14.0 | 0.00 | 0.00 | 0.00 | 76 | 1011.0 |
| 20260904050034 | 82 | 197 | 5.0 | 13.0 | 0.00 | 0.00 | 0.00 | 76 | 1011.1 |
| 20260904045034 | 82 | 160 | 2.0 | 13.0 | 0.00 | 0.00 | 0.00 | 76 | 1011.1 |
| 20260904044034 | 82 | 136 | 7.0 | 14.0 | 0.00 | 0.00 | 0.00 | 76 | 1011.0 |
| 20260904043033 | 82 | 163 | 5.0 | 10.0 | 0.00 | 0.00 | 0.00 | 75 | 1011.1 |
| 20260904042033 | 82 | 138 | 7.0 | 11.0 | 0.00 | 0.00 | 0.00 | 75 | 1011.1 |
| 20260904041033 | 82 | 128 | 8.0 | 16.0 | 0.00 | 0.00 | 0.00 | 74 | 1011.1 |
| 20260904040033 | 82 | 163 | 4.0 | 13.0 | 0.00 | 0.00 | 0.00 | 74 | 1011.0 |
| 20260904035033 | 82 | 155 | 7.0 | 11.0 | 0.00 | 0.00 | 0.00 | 73 | 1010.9 |
| 20260904034034 | 82 | 128 | 3.0 | 10.0 | 0.00 | 0.00 | 0.00 | 73 | 1010.9 |
| 20260904033034 | 82 | 147 | 10.0 | 10.0 | 0.00 | 0.00 | 0.00 | 73 | 1010.8 |
| 20260904032034 | 82 | 124 | 5.0 | 13.0 | 0.00 | 0.00 | 0.00 | 72 | 1010.8 |
| 20260904031034 | 83 | 143 | 3.0 | 15.0 | 0.00 | 0.00 | 0.00 | 71 | 1010.8 |
| 20260904024033 | 83 | 134 | 8.0 | 11.0 | 0.00 | 0.00 | 0.00 | 69 | 1010.6 |
| 20260904023034 | 84 | 142 | 1.0 | 10.0 | 0.00 | 0.00 | 0.00 | 68 | 1010.6 |
| 20260904022033 | 84 | 145 | 3.0 | 10.0 | 0.00 | 0.00 | 0.00 | 68 | 1010.4 |
| 20260904021034 | 84 | 107 | 6.0 | 12.0 | 0.00 | 0.00 | 0.00 | 67 | 1010.2 |
| 20260904020033 | 84 | 121 | 3.0 | 13.0 | 0.00 | 0.00 | 0.00 | 66 | 1010.0 |
| 20260904015034 | 84 | 116 | 6.0 | 11.0 | 0.00 | 0.00 | 0.00 | 65 | 1009.9 |
| 20260904014034 | 84 | 120 | 7.0 | 10.0 | 0.00 | 0.00 | 0.00 | 65 | 1010.0 |
| 20260904013033 | 85 | 123 | 4.0 | 12.0 | 0.00 | 0.00 | 0.00 | 64 | 1009.7 |
| 20260904012033 | 85 | 123 | 5.0 | 12.0 | 0.00 | 0.00 | 0.00 | 64 | 1009.7 |
| 20260904011033 | 85 | 169 | 7.0 | 13.0 | 0.00 | 0.00 | 0.00 | 63 | 1009.4 |
| 20260904005034 | 86 | 105 | 6.0 | 15.0 | 0.00 | 0.00 | 0.00 | 63 | 1009.6 |
| 20260904003033 | 86 | 104 | 8.0 | 15.0 | 0.00 | 0.00 | 0.00 | 63 | 1009.5 |
| 20260904002033 | 87 | 63 | 6.0 | 13.0 | 0.00 | 0.00 | 0.00 | 63 | 1009.4 |
| 20260904001033 | 87 | 151 | 9.0 | 17.0 | 0.00 | 0.00 | 0.00 | 62 | 1009.3 |
| 20260904000033 | 88 | 112 | 8.0 | 15.0 | 0.00 | 0.00 | 0.00 | 62 | 1009.2 |
| 20260903235033 | 88 | 95 | 11.0 | 17.0 | 0.00 | 0.00 | 0.00 | 62 | 1009.2 |
| 20260903234033 | 89 | 147 | 10.0 | 20.0 | 0.00 | 0.00 | 0.00 | 61 | 1009.1 |
| 20260903233033 | 90 | 123 | 16.0 | 16.0 | 0.00 | 0.00 | 0.00 | 61 | 1009.1 |
| 20260903232033 | 89 | 91 | 12.0 | 18.0 | 0.00 | 0.00 | 0.00 | 62 | 1009.0 |
| 20260903230033 | 91 | 133 | 9.0 | 20.0 | 0.00 | 0.00 | 0.00 | 61 | 1008.9 |
| 20260903225033 | 91 | 140 | 12.0 | 20.0 | 0.00 | 0.00 | 0.00 | 59 | 1008.7 |
| 20260903224033 | 92 | 89 | 15.0 | 19.0 | 0.00 | 0.00 | 0.00 | 61 | 1008.6 |
| 20260903223033 | 93 | 88 | 13.0 | 25.0 | 0.00 | 0.00 | 0.00 | 61 | 1008.5 |
| 20260903222033 | 93 | 80 | 7.0 | 18.0 | 0.00 | 0.00 | 0.00 | 60 | 1008.5 |
| 20260903221033 | 93 | 107 | 11.0 | 18.0 | 0.00 | 0.00 | 0.00 | 59 | 1008.5 |
| 20260903220034 | 94 | 164 | 11.0 | 19.0 | 0.00 | 0.00 | 0.00 | 57 | 1008.5 |
| 20260903215033 | 95 | 99 | 10.0 | 18.0 | 0.00 | 0.00 | 0.00 | 56 | 1008.5 |
| 20260903214033 | 94 | 86 | 13.0 | 15.0 | 0.00 | 0.00 | 0.00 | 57 | 1008.5 |
| 20260903213033 | 94 | 112 | 11.0 | 16.0 | 0.00 | 0.00 | 0.00 | 55 | 1008.8 |
| 20260903212033 | 94 | 94 | 4.0 | 16.0 | 0.00 | 0.00 | 0.00 | 55 | 1008.8 |
| 20260903211033 | 94 | 106 | 9.0 | 14.0 | 0.00 | 0.00 | 0.00 | 53 | 1008.8 |
| 20260903210033 | 94 | 105 | 11.0 | 18.0 | 0.00 | 0.00 | 0.00 | 54 | 1008.9 |
| 20260903205033 | 94 | 115 | 10.0 | 17.0 | 0.00 | 0.00 | 0.00 | 54 | 1009.1 |
| 20260903204033 | 94 | 87 | 7.0 | 15.0 | 0.00 | 0.00 | 0.00 | 54 | 1009.2 |
| 20260903203033 | 95 | 101 | 8.0 | 14.0 | 0.00 | 0.00 | 0.00 | 54 | 1009.4 |
| 20260903202033 | 95 | 113 | 7.0 | 14.0 | 0.00 | 0.00 | 0.00 | 54 | 1009.6 |
| 20260903200033 | 95 | 94 | 6.0 | 17.0 | 0.00 | 0.00 | 0.00 | 53 | 1009.7 |
| 20260903195033 | 95 | 124 | 12.0 | 14.0 | 0.00 | 0.00 | 0.00 | 53 | 1009.7 |
| 20260903194033 | 95 | 113 | 6.0 | 15.0 | 0.00 | 0.00 | 0.00 | 53 | 1009.8 |
| 20260903193033 | 96 | 144 | 3.0 | 13.0 | 0.00 | 0.00 | 0.00 | 52 | 1009.9 |
| 20260903192033 | 96 | 53 | 6.0 | 14.0 | 0.00 | 0.00 | 0.00 | 53 | 1010.0 |
| 20260903191033 | 96 | 86 | 8.0 | 13.0 | 0.00 | 0.00 | 0.00 | 52 | 1010.2 |
| 20260903190033 | 94 | 71 | 8.0 | 12.0 | 0.00 | 0.00 | 0.00 | 53 | 1010.4 |
| 20260903183033 | 93 | 137 | 5.0 | 13.0 | 0.00 | 0.00 | 0.00 | 55 | 1010.9 |
| 20260903182033 | 94 | 146 | 4.0 | 11.0 | 0.00 | 0.00 | 0.00 | 54 | 1011.0 |
| 20260903181033 | 94 | 188 | 4.0 | 10.0 | 0.00 | 0.00 | 0.00 | 54 | 1011.1 |
| 20260903180033 | 94 | 139 | 8.0 | 13.0 | 0.00 | 0.00 | 0.00 | 53 | 1011.3 |
| 20260903174033 | 95 | 215 | 5.0 | 10.0 | 0.00 | 0.00 | 0.00 | 51 | 1011.5 |
| 20260903173033 | 95 | 142 | 8.0 | 12.0 | 0.00 | 0.00 | 0.00 | 52 | 1011.7 |
| 20260903172033 | 95 | 148 | 3.0 | 10.0 | 0.00 | 0.00 | 0.00 | 52 | 1011.8 |
| 20260903171033 | 92 | 163 | 1.0 | 9.0 | 0.00 | 0.00 | 0.00 | 57 | 1011.9 |
| 20260903170033 | 92 | 187 | 4.0 | 11.0 | 0.00 | 0.00 | 0.00 | 58 | 1011.9 |
| 20260903165033 | 91 | 213 | 1.0 | 10.0 | 0.00 | 0.00 | 0.00 | 59 | 1011.8 |
| 20260903164033 | 90 | 165 | 1.0 | 12.0 | 0.00 | 0.00 | 0.00 | 61 | 1011.7 |
| 20260903162033 | 90 | 183 | 5.0 | 15.0 | 0.00 | 0.00 | 0.00 | 61 | 1011.7 |
| 20260903161033 | 90 | 194 | 10.0 | 16.0 | 0.00 | 0.00 | 0.00 | 60 | 1011.5 |
| 20260903160033 | 89 | 194 | 10.0 | 14.0 | 0.00 | 0.00 | 0.00 | 61 | 1011.4 |
| 20260903155033 | 90 | 211 | 9.0 | 12.0 | 0.00 | 0.00 | 0.00 | 62 | 1011.3 |
| 20260903154033 | 90 | 207 | 6.0 | 14.0 | 0.00 | 0.00 | 0.00 | 62 | 1011.3 |
| 20260903153033 | 89 | 215 | 9.0 | 14.0 | 0.00 | 0.00 | 0.00 | 64 | 1011.4 |
| 20260903151033 | 87 | 192 | 3.0 | 14.0 | 0.00 | 0.00 | 0.00 | 68 | 1011.4 |
| 20260903150033 | 86 | 200 | 7.0 | 14.0 | 0.00 | 0.00 | 0.00 | 69 | 1011.4 |
| 20260903145033 | 86 | 206 | 4.0 | 15.0 | 0.00 | 0.00 | 0.00 | 70 | 1011.5 |
| 20260903144033 | 85 | 188 | 4.0 | 13.0 | 0.00 | 0.00 | 0.00 | 71 | 1011.3 |
| 20260903143033 | 85 | 234 | 13.0 | 21.0 | 0.00 | 0.00 | 0.00 | 71 | 1011.3 |
| 20260903142033 | 84 | 213 | 9.0 | 15.0 | 0.00 | 0.00 | 0.00 | 72 | 1011.3 |
| 20260903141033 | 84 | 269 | 10.0 | 16.0 | 0.00 | 0.00 | 0.00 | 73 | 1011.3 |
| 20260903140033 | 84 | 199 | 9.0 | 14.0 | 0.00 | 0.00 | 0.00 | 74 | 1011.3 |
| 20260903135033 | 84 | 228 | 5.0 | 10.0 | 0.00 | 0.00 | 0.00 | 76 | 1011.3 |
| 20260903134033 | 83 | 201 | 9.0 | 13.0 | 0.00 | 0.00 | 0.00 | 77 | 1011.3 |
| 20260903133033 | 83 | 188 | 7.0 | 11.0 | 0.00 | 0.00 | 0.00 | 78 | 1011.2 |
| 20260903132033 | 82 | 196 | 5.0 | 11.0 | 0.00 | 0.00 | 0.00 | 79 | 1011.3 |
| 20260903131033 | 82 | 211 | 8.0 | 12.0 | 0.00 | 0.00 | 0.00 | 79 | 1011.4 |
| 20260903130033 | 82 | 185 | 10.0 | 12.0 | 0.00 | 0.00 | 0.00 | 79 | 1011.4 |
| 20260903125033 | 82 | 175 | 10.0 | 12.0 | 0.00 | 0.00 | 0.00 | 80 | 1011.2 |
| 20260903124033 | 82 | 186 | 6.0 | 12.0 | 0.00 | 0.00 | 0.00 | 80 | 1011.2 |
| 20260903123033 | 82 | 181 | 6.0 | 14.0 | 0.00 | 0.00 | 0.00 | 80 | 1011.1 |
| 20260903122033 | 81 | 174 | 7.0 | 12.0 | 0.00 | 0.00 | 0.00 | 80 | 1011.0 |
| 20260903121033 | 81 | 169 | 5.0 | 14.0 | 0.00 | 0.00 | 0.00 | 80 | 1010.9 |
| 20260903120033 | 82 | 152 | 7.0 | 14.0 | 0.00 | 0.00 | 0.00 | 80 | 1010.9 |
| 20260903115033 | 82 | 178 | 8.0 | 15.0 | 0.00 | 0.00 | 0.00 | 80 | 1011.0 |
| 20260903113033 | 82 | 189 | 6.0 | 10.0 | 0.00 | 0.00 | 0.00 | 80 | 1011.0 |
| 20260903112033 | 82 | 200 | 9.0 | 12.0 | 0.00 | 0.00 | 0.00 | 80 | 1011.1 |
| 20260903111033 | 82 | 154 | 7.0 | 13.0 | 0.00 | 0.00 | 0.00 | 81 | 1011.0 |
| 20260903110033 | 82 | 158 | 5.0 | 12.0 | 0.00 | 0.00 | 0.00 | 81 | 1010.9 |
| 20260903104033 | 81 | 159 | 7.0 | 14.0 | 0.00 | 0.00 | 0.00 | 81 | 1010.7 |